Kiana, AK

2:02 AM AKDT on October 23, 2017 (GMT -0800)
Baker Memorial

Weather History for PAIK - January, 2012

Change the Weather History Date:

Saturday, January 7, 2012

  Actual Average (PASK) Record (PASK)
Temperature  
Mean Temperature -40 °F -  
Max Temperature -45 °F 1 °F 23 °F (2014)
Min Temperature -45 °F -10 °F -50 °F (2012)
Degree Days  
Heating Degree Days 105    
Moisture  
Dew Point -    
Average Humidity    
Maximum Humidity    
Minimum Humidity    
Precipitation  
Precipitation 0.00 in - - ()
Sea Level Pressure  
Sea Level Pressure 29.73 in    
Wind  
Wind Speed 2 mph (North)    
Max Wind Speed 12 mph    
Max Gust Speed -    
Visibility 5 miles    
Events Fog , Snow    
Averages and records for this station are not official NWS values.
T = Trace of Precipitation, MM = Missing Value Source: NWS Daily Summary

Daily Weather History Graph

Daily Weather History Graph

Search for Another Location

Airport or City:

Trip Planner

Search our weather history database for the weather conditions in past years. The results will help you decide how hot, cold, wet, or windy it might be!

Date:

Astronomy

Jan. 07, 2012 Rise Set
Actual Time 12:20 PM AKST 3:16 PM AKST
Civil Twilight 10:39 AM AKST 4:57 PM AKST
Nautical Twilight 9:20 AM AKST 6:15 PM AKST
Astronomical Twilight 8:14 AM AKST 7:22 PM AKST
Moon 1:54 PM AKST (1/7) 11:20 AM AKST (1/7)
Length of Visible Light 6h 18m
Length of Day
2h 55m
Waxing Gibbous, 98% of the Moon is Illuminated
Jan 7
Waxing Gibbous
Jan 8
Full
Jan 16
Last Quarter
Jan 22
New
Jan 30
First Quarter

Hourly Weather History & Observations

Time (AKST) Temp. Windchill Dew Point Humidity Pressure Visibility Wind Dir Wind Speed Gust Speed Precip Events Conditions
12:01 AM -35.0 °F - - N/A% 29.94 in 2.0 mi Calm Calm - 0.00 in Snow Light Snow
12:08 AM -36.4 °F - - N/A% 29.79 in 1.5 mi Calm Calm - 0.00 in Snow Light Snow
12:13 AM -36.4 °F - - N/A% 29.79 in 3.0 mi Calm Calm - 0.00 in Snow Light Snow
12:51 AM -36.4 °F -49.4 °F - N/A% 29.79 in 3.0 mi ESE 3.5 mph - 0.00 in Snow Light Snow
12:59 AM -36.4 °F - - N/A% 29.80 in 2.0 mi Calm Calm - 0.00 in Snow Light Snow
1:01 AM -36.4 °F - - N/A% 29.79 in 2.0 mi Calm Calm - 0.00 in Snow Light Snow
1:07 AM -36.0 °F - - N/A% 29.95 in 2.0 mi Calm Calm - 0.00 in Snow Light Snow
1:18 AM -36.4 °F - - N/A% 29.80 in 5.0 mi Calm Calm - 0.00 in Snow Light Snow
1:41 AM -36.4 °F - - N/A% 29.80 in 9.0 mi Calm Calm - 0.00 in Snow Light Snow
2:01 AM -36.0 °F - - N/A% 29.95 in 9.0 mi Calm Calm - 0.00 in   Overcast
3:01 AM -35.0 °F - - N/A% 29.94 in 9.0 mi Calm Calm - 0.00 in Snow Light Snow
4:01 AM -35.0 °F - - N/A% 29.94 in 9.0 mi Calm Calm - 0.00 in Snow Light Snow
5:01 AM -36.9 °F -50.1 °F - N/A% 29.92 in 8.0 mi NNW 3.5 mph - 0.00 in   Clear
6:01 AM -43.1 °F - - N/A% 29.91 in 3.0 mi Calm Calm - N/A   Clear
6:05 AM -43.6 °F - - N/A% 29.76 in 1.8 mi Calm Calm - N/A   Clear
6:12 AM -41.8 °F -58.7 °F - N/A% 29.75 in 3.0 mi North 4.6 mph - N/A   Clear
6:58 AM -41.8 °F -55.6 °F - N/A% 29.74 in 2.0 mi North 3.5 mph - N/A   Clear
7:01 AM -41.8 °F - - N/A% 29.74 in 3.0 mi Calm Calm - N/A   Clear
7:07 AM -41.1 °F -57.8 °F - N/A% 29.89 in 10.0 mi North 4.6 mph - N/A   Clear
8:01 AM -43.1 °F -60.2 °F - N/A% 29.88 in 10.0 mi NNW 4.6 mph - N/A   Clear
8:25 AM -43.6 °F - - N/A% 29.72 in 1.5 mi Calm Calm - N/A   Partly Cloudy
8:28 AM -43.6 °F - - N/A% 29.72 in 0.8 mi Calm Calm - N/A   Mist
8:38 AM -45.4 °F -59.7 °F - N/A% 29.72 in 1.2 mi North 3.5 mph - N/A   Partly Cloudy
8:43 AM -45.4 °F - - N/A% 29.72 in 4.0 mi Calm Calm - N/A   Haze
9:01 AM -45.0 °F -70.7 °F - N/A% 29.87 in 10.0 mi NNW 9.2 mph - N/A   Clear
9:32 AM -43.6 °F - - N/A% 29.71 in 1.8 mi Calm Calm - N/A   Clear
9:51 AM -43.6 °F -57.7 °F - N/A% 29.70 in 3.0 mi North 3.5 mph - N/A   Clear
10:01 AM -44.0 °F - - N/A% 29.85 in 10.0 mi Calm Calm - N/A   Clear
10:40 AM -43.6 °F -57.7 °F - N/A% 29.69 in 1.5 mi East 3.5 mph - N/A   Clear
10:45 AM -43.6 °F -57.7 °F - N/A% 29.69 in 0.8 mi NE 3.5 mph - N/A   Clear
10:49 AM -43.6 °F -57.7 °F - N/A% 29.69 in 1.2 mi NNE 3.5 mph - N/A   Clear
11:01 AM -45.0 °F -59.3 °F - N/A% 29.84 in 1.5 mi NW 3.5 mph - N/A   Clear
11:14 AM -45.4 °F -62.9 °F - N/A% 29.69 in 5.0 mi North 4.6 mph - N/A   Haze
12:01 PM -42.0 °F -69.7 °F - N/A% 29.81 in 10.0 mi NNW 11.5 mph - N/A   Clear
12:11 PM -41.8 °F - - N/A% 29.66 in 1.8 mi Calm Calm - N/A   Partly Cloudy
12:16 PM -41.8 °F - - N/A% 29.66 in 0.8 mi Calm Calm - N/A   Mist
12:34 PM -43.6 °F -57.7 °F - N/A% 29.66 in 0.5 mi North 3.5 mph - N/A Fog Light Freezing Fog
12:41 PM -43.6 °F -60.8 °F - N/A% 29.66 in 1.0 mi North 4.6 mph - N/A   Mist
12:45 PM -43.6 °F -57.7 °F - N/A% 29.65 in 2.0 mi North 3.5 mph - N/A   Partly Cloudy
12:53 PM -43.6 °F -60.8 °F - N/A% 29.65 in 10.0 mi North 4.6 mph - N/A   Partly Cloudy
1:01 PM -44.0 °F -61.2 °F - N/A% 29.80 in 10.0 mi North 4.6 mph - N/A   Clear
2:01 PM -43.1 °F -62.7 °F - N/A% 29.78 in 10.0 mi North 5.8 mph - N/A   Clear
3:01 PM -45.0 °F - - N/A% 29.75 in 9.0 mi Calm Calm - N/A   Clear
4:01 PM -45.9 °F - - N/A% 29.73 in 5.0 mi Calm Calm - N/A   Haze
5:01 PM -45.0 °F -62.5 °F - N/A% 29.72 in 10.0 mi North 4.6 mph - N/A   Clear
5:13 PM -45.4 °F - - N/A% 29.57 in 2.5 mi Calm Calm - N/A   Partly Cloudy
5:29 PM -45.4 °F -65.4 °F - N/A% 29.56 in 4.0 mi NW 5.8 mph - N/A   Haze
6:01 PM -43.1 °F -64.8 °F - N/A% 29.71 in 10.0 mi NNW 6.9 mph - N/A   Clear
7:01 PM -42.0 °F -65.3 °F - N/A% 29.70 in 10.0 mi NNW 8.1 mph - N/A   Clear
8:01 PM -45.0 °F -70.7 °F - N/A% 29.68 in 10.0 mi NNW 9.2 mph - N/A   Clear
9:01 PM -43.1 °F -60.2 °F - N/A% 29.66 in 8.0 mi NW 4.6 mph - N/A   Clear
10:01 PM -41.1 °F -54.8 °F - N/A% 29.66 in 9.0 mi NNW 3.5 mph - N/A   Clear
10:07 PM -41.8 °F - - N/A% 29.51 in 1.8 mi Calm Calm - N/A   Clear
10:14 PM -41.8 °F - - N/A% 29.51 in 0.8 mi Calm Calm - N/A   Clear
10:23 PM -43.6 °F - - N/A% 29.51 in 1.2 mi Calm Calm - N/A   Clear
10:46 PM -45.4 °F -71.1 °F - N/A% 29.51 in 3.0 mi NNW 9.2 mph - N/A   Clear
11:01 PM -45.9 °F -74.7 °F - N/A% 29.65 in 10.0 mi NNW 11.5 mph - N/A   Clear
11:48 PM -43.6 °F - - N/A% 29.51 in 1.5 mi Calm Calm - N/A   Clear
11:52 PM -43.6 °F - - N/A% 29.51 in 1.0 mi Calm Calm - N/A   Mist
11:55 PM -45.4 °F - - N/A% 29.52 in 0.8 mi Calm Calm - N/A   Mist